Regional Weather Roundup
Issued by NWS Newport/Morehead, NC

Current Version | Previous Version | Graphics & Text | Print | Product List | Glossary Off
Versions: 1 2 3 4 5 6 7 8 9 10 11 12 13 14 15 16 17 18 19 20 21 22 23 24 25 26 27 28 29 30 31 32 33 34 35 36 37 38 39 40 41 42 43 44 45 46 47 48 49 50

000
ASUS42 KMHX 010013
RWRMHX
WEATHER ROUNDUP FOR EASTERN NORTH CAROLINA
NATIONAL WEATHER SERVICE NEWPORT/MOREHEAD CITY NC
800 PM EDT MON AUG 31 2015

NOTE: "FAIR" INDICATES FEW OR NO CLOUDS BELOW 12,000 FEET
WITH NO SIGNIFICANT WEATHER AND/OR OBSTRUCTIONS TO VISIBILITY

NCZ015>017-031-032-045>047-102-103-010100-
NORTH COAST

CITY           SKY/WX    TMP DP  RH WIND       PRES   REMARKS
EDENTON        CLOUDY    74  71  92 SE5       30.07R
ELIZABETH CITY CLOUDY    73  72  96 SE6       30.07S
KITTY HAWK     MOCLDY    74  71  88 CALM      30.06S
MANTEO         MOCLDY    73  70  91 SE3       30.07S

$$

NCZ045>047-081-094-103-104-010100-
CENTRAL COAST

CITY           SKY/WX    TMP DP  RH WIND       PRES   REMARKS
FRISCO         CLOUDY    78  72  81 S14       30.06F
SWANQUARTER    NOT AVBL

$$

NCZ095-097-098-100-101-010100-
SOUTHERN COAST

CITY           SKY/WX    TMP DP  RH WIND       PRES   REMARKS
BEAUFORT       CLOUDY    78  75  90 SE8       30.05S
CEDAR ISLAND   NOT AVBL
JACKSONVILLE   CLOUDY    77  74  90 E7        30.04S
PINEY ISLAND   MOCLDY   N/A N/A N/A SE7       30.05F
WILMINGTON     RAIN      75  74  96 NE3       30.04S FOG


$$

NCZ011>013-027>030-043-044-078>080-089-090>093-098-010100-
COASTAL PLAIN

CITY           SKY/WX    TMP DP  RH WIND       PRES   REMARKS
AHOSKIE        CLOUDY    72  70  95 CALM      30.07R
CLINTON        MOCLDY    78  76  92 CALM      30.05R
ELIZABETHTOWN  CLOUDY    78  74  87 SE3       30.04R
GOLDSBORO      CLOUDY    76  75  97 E2        30.04R
GREENVILLE     CLOUDY    77  73  88 SE3       30.07S
HAVELOCK       RAIN      77  74  90 SE3       30.06F
KENANSVILLE      N/A     76  74  91 CALM      30.06R
KINSTON        CLOUDY    77  73  88 CALM      30.06R FOG
NEW BERN       RAIN      77  73  87 SE5       30.07R
RICHLANDS      CLOUDY    75  70  83 CALM      30.05S
ROCKY MOUNT    CLOUDY    75  73  93 CALM      30.06S
WASHINGTON     CLOUDY    76  73  88 SE3       30.06S
WHITEVILLE     CLEAR     75  74  95 CALM      30.03S

$$

AMZ130-135-150-152-154-156-158-170-250-252-270-ANZ085-086-088-633-658-670-010100-
MARINE OBSERVATIONS

STATION/POSITION TIME  TEMP    WIND        PRES    WAVE   SWELL
                       AIR SEA DIR/SP/G            HT/PER HT/PER
                 (UTC) (F)     (DEG/KT/KT) (MB)    (FT/S) (FT/S)
CHESAPEAKE LIGHT 0000   75     190/  6/  7 1019.2
64 E VA BEACH    2350   76 78  240/  2/  4 1018.4    3/ 9   3/ 9
DUCK             2300   74 79  170/  6/  8 1017.5
2 E DUCK         2311      78                N/A     2/ 8
OREGON INLET     2300   75 80  130/  5/  7 1018.1
13E OREGON INLT  0000      78                N/A     2/ 8
HATTERAS CG      2300   79 80  150/ 10/ 15 1017.8
DIAMOND BUOY     2350   81 84  160/ 16/ 17 1017.8    4/ 9   3/ 9
CAPE LOOKOUT     0000   78     150/ 15/ 17 1017.3
BEAUFORT LAB     2300   78 79  140/  8/ 11 1017.0
30 SE NEW RVR IN 2308   78 81  140/ 12/ 16 1017.2
30 SE NEW RVR IN 2325      81                N/A     5/ 8
27 SE WRIGHTSVLE 2300   75 81  170/  6/  8   N/A
5 SE WRIGHTSVLE  2308   79 82  120/  8/ 12 1016.6
225 S CAPE HAT   2350   84 84  210/ 14/ 16 1018.6    4/ 6   2/ 8
41 SE CHARLESTON 2350   81 83  230/ 10/ 12 1016.7    4/ 9   3/ 9

$$



USA.gov is the U.S. government's official web portal to all federal, state and local government web resources and services.